This is the latest recevied weather packets stored in our database for station/object W4NDF-13. If no packets are shown the sender has not sent any weather packets the latest 10 day(s).
| Time | Temp. | Humidity | Pressure | Rain* | Wind** | Luminosity | Snow |
|---|---|---|---|---|---|---|---|
| 1777656246 | 20° C | 94% | 1012.4 hPa | 0 mm | - | 37 W/m² | - |
| 1777655942 | 20.56° C | 94% | 1012.7 hPa | 0 mm | - | 39 W/m² | - |
| 1777655638 | 20.56° C | 94% | 1012.9 hPa | 0 mm | - | 35 W/m² | - |
| 1777655335 | 20.56° C | 93% | 1012.9 hPa | 0 mm | - | 51 W/m² | - |
| 1777655032 | 20.56° C | 93% | 1013 hPa | 0 mm | - | 46 W/m² | - |
| 1777654730 | 21.11° C | 92% | 1013 hPa | 0 mm | - | 45 W/m² | - |
| 1777654428 | 21.11° C | 92% | 1013.3 hPa | 0 mm | - | 61 W/m² | - |
| 1777654125 | 21.11° C | 92% | 1013.1 hPa | 0 mm | - | 109 W/m² | - |
| 1777653823 | 21.11° C | 91% | 1013.1 hPa | 0 mm | - | 101 W/m² | - |
| 1777653518 | 21.11° C | 91% | 1012.9 hPa | 0 mm | - | 99 W/m² | - |
| 1777653215 | 21.11° C | 91% | 1012.8 hPa | 0 mm | - | 119 W/m² | - |
| 1777652912 | 21.11° C | 90% | 1012.7 hPa | 0 mm | - | 134 W/m² | - |
| 1777652609 | 21.11° C | 91% | 1013.1 hPa | 0 mm | - | 241 W/m² | - |
| 1777652305 | 21.11° C | 91% | 1013.4 hPa | 0 mm | - | 176 W/m² | - |
| 1777652002 | 21.67° C | 91% | 1013.4 hPa | 0 mm | - | 158 W/m² | - |
| 1777651699 | 21.11° C | 91% | 1013.8 hPa | 0 mm | - | 191 W/m² | - |
| 1777651396 | 20.56° C | 92% | 1014.1 hPa | 0 mm | - | 206 W/m² | - |
| 1777651093 | 20.56° C | 92% | 1014.3 hPa | 0 mm | - | 109 W/m² | - |
| 1777650790 | 20.56° C | 92% | 1014.7 hPa | 0 mm | - | 103 W/m² | - |
| 1777650486 | 20.56° C | 92% | 1014.7 hPa | 0 mm | - | 99 W/m² | - |
| 1777650184 | 20° C | 92% | 1014.5 hPa | 0 mm | - | 80 W/m² | - |
| 1777649881 | 20.56° C | 92% | 1014.3 hPa | 0 mm | - | 71 W/m² | - |
| 1777649579 | 20.56° C | 93% | 1014.2 hPa | 0 mm | - | 86 W/m² | - |
| 1777649274 | 20.56° C | 93% | 1014.3 hPa | 0 mm | - | 89 W/m² | - |
| 1777648972 | 20.56° C | 92% | 1014.3 hPa | 0 mm | - | 68 W/m² | - |
* Rain latest hour (hover to see other rain measurements)
** Current wind speed in m/s (hover to see current wind gust speed)